AD7L Weather Reports


Display with metric or nautical units.
time (UTC)temp
F
wind
direction
speed
MPH
gust
MPH
rain 1hr
in
rain 24hr
in
rain mn
in
humidity
%
barometer
mb
20210926080705 51 190 1.0 6.0 0.00 0.00 0.00 93 1013.2
20210926075705 51 244 3.0 5.0 0.00 0.00 0.00 92 1013.2
20210926074704 52 240 3.0 5.0 0.00 0.00 0.00 92 1012.9
20210926073704 52 229 2.0 6.0 0.00 0.00 0.00 91 1013.1
20210926072704 52 235 3.0 5.0 0.00 0.00 0.00 91 1012.9
20210926071704 52 238 1.0 5.0 0.00 0.00 0.00 90 1012.7
20210926070704 53 237 3.0 6.0 0.00 0.00 0.00 89 1012.6
20210926065704 53 228 2.0 6.0 0.00 0.00 0.00 88 1012.4
20210926064708 54 216 3.0 7.0 0.00 0.00 0.00 85 1012.5
20210926063704 55 228 3.0 8.0 0.00 0.00 0.00 83 1012.4
20210926062704 56 194 5.0 10.0 0.00 0.00 0.00 82 1012.3
20210926061703 56 239 5.0 8.0 0.00 0.00 0.00 80 1012.1
20210926060705 57 213 5.0 10.0 0.00 0.00 0.00 79 1012.1
20210926055705 58 208 1.0 12.0 0.00 0.00 0.00 77 1012.1
20210926054703 59 205 4.0 10.0 0.00 0.00 0.00 74 1012.2
20210926053705 60 199 5.0 9.0 0.00 0.00 0.00 75 1012.2
20210926052705 61 192 0.0 3.0 0.00 0.00 0.00 73 1012.2
20210926051703 61 183 0.0 3.0 0.00 0.00 0.00 73 1012.3
20210926050705 62 185 0.0 6.0 0.00 0.00 0.00 72 1012.2
20210926045704 62 189 1.0 5.0 0.00 0.00 0.00 72 1012.3
20210926044704 62 237 1.0 5.0 0.00 0.00 0.00 72 1012.1
20210926043705 62 193 2.0 5.0 0.00 0.00 0.00 71 1012.1
20210926042704 62 185 2.0 5.0 0.00 0.00 0.00 71 1012.1
20210926041703 63 180 1.0 5.0 0.00 0.00 0.00 70 1012.0
20210926040705 63 181 2.0 6.0 0.00 0.00 0.00 70 1012.1
20210926035705 64 184 4.0 7.0 0.00 0.00 0.00 68 1012.0
20210926034703 64 187 3.0 7.0 0.00 0.00 0.00 70 1011.9
20210926033705 65 198 3.0 6.0 0.00 0.00 0.00 68 1012.1
20210926032704 65 212 2.0 3.0 0.00 0.00 0.00 68 1012.1
20210926031708 66 228 2.0 3.0 0.00 0.00 0.00 67 1012.3
20210926030705 66 215 1.0 3.0 0.00 0.00 0.00 66 1012.0
20210926025705 67 208 2.0 6.0 0.00 0.00 0.00 62 1012.2
20210926024704 67 194 3.0 6.0 0.00 0.00 0.00 61 1011.8
20210926023705 68 214 3.0 6.0 0.00 0.00 0.00 61 1011.8
20210926022705 68 217 3.0 6.0 0.00 0.00 0.00 63 1011.9
20210926021704 68 201 3.0 5.0 0.00 0.00 0.00 63 1011.9
20210926020704 69 217 2.0 5.0 0.00 0.00 0.00 62 1012.1
20210926015705 70 227 1.0 8.0 0.00 0.00 0.00 61 1012.2
20210926014704 70 211 2.0 7.0 0.00 0.00 0.00 59 1012.1
20210926013705 71 213 2.0 6.0 0.00 0.00 0.00 58 1012.3
20210926012704 71 217 2.0 7.0 0.00 0.00 0.00 58 1012.3
20210926011704 72 214 5.0 10.0 0.00 0.00 0.00 56 1012.3
20210926010705 73 209 2.0 6.0 0.00 0.00 0.00 56 1012.2
20210926005704 74 227 2.0 7.0 0.00 0.00 0.00 55 1012.4
20210926004704 75 187 2.0 9.0 0.00 0.00 0.00 53 1012.2
20210926003704 75 202 5.0 9.0 0.00 0.00 0.00 51 1012.2
20210926002705 76 243 1.0 10.0 0.00 0.00 0.00 51 1012.2
20210926001706 76 187 5.0 10.0 0.00 0.00 0.00 50 1012.3
20210926000704 76 238 3.0 8.0 0.00 0.00 0.00 51 1012.5
20210925235705 76 202 3.0 9.0 0.00 0.00 0.00 51 1012.6
20210925234703 77 221 3.0 8.0 0.00 0.00 0.00 51 1012.5
20210925233705 77 227 5.0 9.0 0.00 0.00 0.00 50 1012.5
20210925232704 77 216 3.0 9.0 0.00 0.00 0.00 48 1012.6
20210925231704 77 181 3.0 7.0 0.00 0.00 0.00 46 1012.7
20210925230705 77 211 4.0 8.0 0.00 0.00 0.00 44 1012.8
20210925225704 77 202 3.0 8.0 0.00 0.00 0.00 47 1012.9
20210925224704 77 241 1.0 6.0 0.00 0.00 0.00 45 1013.1
20210925223704 78 197 5.0 9.0 0.00 0.00 0.00 44 1013.1
20210925222705 77 193 3.0 8.0 0.00 0.00 0.00 45 1013.2
20210925221703 78 214 2.0 12.0 0.00 0.00 0.00 45 1013.3
20210925220705 78 205 4.0 12.0 0.00 0.00 0.00 46 1013.4
20210925215704 78 188 1.0 6.0 0.00 0.00 0.00 47 1013.6
20210925214704 77 205 3.0 10.0 0.00 0.00 0.00 48 1013.6
20210925213705 78 211 3.0 8.0 0.00 0.00 0.00 48 1013.7
20210925212705 77 197 3.0 7.0 0.00 0.00 0.00 49 1013.9
20210925211703 77 195 5.0 10.0 0.00 0.00 0.00 47 1013.9
20210925210705 77 203 4.0 7.0 0.00 0.00 0.00 48 1014.0
20210925205704 76 199 2.0 8.0 0.00 0.00 0.00 47 1014.1
20210925204703 76 206 3.0 6.0 0.00 0.00 0.00 49 1014.1
20210925203704 76 189 3.0 7.0 0.00 0.00 0.00 50 1014.1
20210925202704 75 240 1.0 5.0 0.00 0.00 0.00 52 1014.2
20210925201703 75 242 2.0 5.0 0.00 0.00 0.00 52 1014.3
20210925200704 75 295 1.0 5.0 0.00 0.00 0.00 51 1014.2
20210925195704 74 227 1.0 6.0 0.00 0.00 0.00 51 1014.3
20210925194704 73 198 3.0 7.0 0.00 0.00 0.00 54 1014.3
20210925193705 73 193 2.0 5.0 0.00 0.00 0.00 52 1014.4
20210925192704 72 181 2.0 5.0 0.00 0.00 0.00 57 1014.3
20210925191703 71 193 1.0 7.0 0.00 0.00 0.00 56 1014.2
20210925190704 70 196 3.0 5.0 0.00 0.00 0.00 57 1014.3
20210925185704 68 220 1.0 3.0 0.00 0.00 0.00 59 1014.4
20210925184703 67 201 1.0 3.0 0.00 0.00 0.00 62 1014.3
20210925183705 66 199 2.0 5.0 0.00 0.00 0.00 62 1014.4
20210925182704 64 230 1.0 5.0 0.00 0.00 0.00 67 1014.4
20210925181704 63 216 2.0 5.0 0.00 0.00 0.00 68 1014.6
20210925180704 63 216 1.0 6.0 0.00 0.00 0.00 68 1014.5
20210925175704 62 194 2.0 6.0 0.00 0.00 0.00 69 1014.3
20210925174704 62 232 2.0 6.0 0.00 0.00 0.00 72 1014.5
20210925173704 61 179 3.0 6.0 0.00 0.00 0.00 73 1014.4
20210925172704 61 220 2.0 6.0 0.00 0.00 0.00 75 1014.3
20210925171704 60 206 2.0 6.0 0.00 0.00 0.00 75 1014.2
20210925170704 60 208 1.0 3.0 0.00 0.00 0.00 74 1014.2
20210925165704 59 206 3.0 6.0 0.00 0.00 0.00 72 1014.1
20210925164704 59 194 2.0 3.0 0.00 0.00 0.00 77 1014.2
20210925163704 59 202 1.0 3.0 0.00 0.00 0.00 77 1014.3
20210925162704 59 202 2.0 5.0 0.00 0.00 0.00 75 1014.2
20210925161703 59 171 0.0 5.0 0.00 0.00 0.00 76 1014.1
20210925160705 59 226 0.0 1.0 0.00 0.00 0.00 78 1014.0
20210925155704 59 226 0.0 3.0 0.00 0.00 0.00 76 1014.1
20210925154704 58 194 1.0 3.0 0.00 0.00 0.00 78 1014.0
20210925153704 58 203 2.0 5.0 0.00 0.00 0.00 79 1014.1
20210925152704 59 200 1.0 5.0 0.00 0.00 0.00 75 1014.0
20210925151703 59 192 2.0 5.0 0.00 0.00 0.00 75 1013.9
20210925150704 59 182 2.0 5.0 0.00 0.00 0.00 75 1013.9
20210925145705 59 180 3.0 6.0 0.00 0.00 0.00 74 1013.8
20210925144704 59 191 2.0 5.0 0.00 0.00 0.00 73 1013.7
20210925143704 59 194 2.0 5.0 0.00 0.00 0.00 72 1013.6
20210925142704 59 198 2.0 5.0 0.00 0.00 0.00 72 1013.6
20210925141704 59 197 3.0 5.0 0.00 0.00 0.00 73 1013.6
20210925140705 60 209 3.0 6.0 0.00 0.00 0.00 71 1013.8
20210925135705 60 198 2.0 5.0 0.00 0.00 0.00 70 1013.5
20210925134704 60 199 2.0 6.0 0.00 0.00 0.00 70 1013.4
20210925133704 60 194 2.0 5.0 0.00 0.00 0.00 70 1013.3
20210925132704 60 197 2.0 5.0 0.00 0.00 0.00 72 1013.3
20210925131704 60 253 2.0 3.0 0.00 0.00 0.00 71 1013.4
20210925130704 61 230 2.0 6.0 0.00 0.00 0.00 68 1013.4
20210925125705 61 184 3.0 6.0 0.00 0.00 0.00 65 1013.3
20210925124703 62 186 3.0 5.0 0.00 0.00 0.00 64 1013.2
20210925123704 62 190 2.0 3.0 0.00 0.00 0.00 61 1013.1
20210925122705 62 189 2.0 3.0 0.00 0.00 0.00 60 1013.2
20210925121704 62 189 1.0 3.0 0.00 0.00 0.00 61 1013.1
20210925120705 63 189 2.0 5.0 0.00 0.00 0.00 60 1013.0
20210925115704 63 213 2.0 5.0 0.00 0.00 0.00 60 1013.1
20210925114703 63 237 2.0 5.0 0.00 0.00 0.00 60 1013.1
20210925113704 63 218 1.0 3.0 0.00 0.00 0.00 58 1013.2
20210925112704 63 218 2.0 3.0 0.00 0.00 0.00 56 1013.0
20210925111704 63 218 2.0 3.0 0.00 0.00 0.00 54 1013.2
20210925110705 63 218 1.0 3.0 0.00 0.00 0.00 54 1013.0
20210925105704 64 218 1.0 3.0 0.00 0.00 0.00 54 1013.0
20210925104704 64 218 2.0 3.0 0.00 0.00 0.00 54 1013.2
20210925103704 65 235 1.0 3.0 0.00 0.00 0.00 52 1013.1
20210925102707 65 220 2.0 3.0 0.00 0.00 0.00 51 1013.2
20210925101704 65 214 2.0 5.0 0.00 0.00 0.00 50 1013.2
20210925100705 65 212 3.0 5.0 0.00 0.00 0.00 49 1013.3
20210925095704 66 183 3.0 6.0 0.00 0.00 0.00 49 1013.2
20210925094704 66 185 2.0 5.0 0.00 0.00 0.00 48 1013.1
20210925093704 66 179 2.0 3.0 0.00 0.00 0.00 49 1013.3
20210925092704 66 187 2.0 5.0 0.00 0.00 0.00 49 1013.3
20210925091703 66 194 2.0 3.0 0.00 0.00 0.00 49 1013.4
20210925090704 66 194 2.0 3.0 0.00 0.00 0.00 49 1013.3
20210925085704 66 189 2.0 5.0 0.00 0.00 0.00 50 1013.3
20210925084703 66 184 2.0 3.0 0.00 0.00 0.00 49 1013.3
20210925083704 66 163 2.0 5.0 0.00 0.00 0.00 48 1013.4
20210925082705 66 127 0.0 2.0 0.00 0.00 0.00 48 1013.2
20210925081703 67 127 0.0 2.0 0.00 0.00 0.00 48 1013.3